[[{"header":{"parameterUnit":"m.s-1","parameterCategory":1,"la1":30.2991,"la2":30.254,"lo1":-89.0895,"lo2":-89.0444,"dy":0.0017,"dx":0.0017,"nx":28,"ny":28,"refTime":"2024-02-29T03:00:00:Z","depth":0,"parameterNumber":2,"parameterNumberName":"U-component_of_WINDS"},"data":[0,0,0,0,0,0,0,0,0,0,0,0,0,0,0,0,0,0,0,0,0,0,0,0,0,0,0,0,0,0,0,0,0,0,0,0,0,0,0,0,0,0,0,0,0,0,0,0,0,0,0,0,0,0,0,0,0,0,-4.1083,-4.1086,0,-4.1326,-4.1329,-4.1332,-4.143,-4.1429,-4.1429,-4.1428,-4.1674,-4.1681,-4.1688,0,0,0,0,0,0,0,0,0,0,0,0,0,-4.0701,-4.0708,-4.1083,-4.1086,-4.1089,-4.1326,-4.1329,-4.1332,-4.143,-4.1429,-4.1429,-4.1428,-4.1672,-4.168,-4.1689,0,0,0,0,0,0,0,0,0,0,0,0,0,-4.0898,-4.071,-4.1082,-4.1166,-4.1176,-4.1325,-4.1329,-4.1333,-4.143,-4.1429,-4.1429,-4.1428,-4.1669,-4.168,-4.169,-4.1772,0,0,-4.1722,-4.1727,0,0,0,0,0,0,0,0,-4.0886,-4.0912,-4.1151,-4.1161,-4.1172,-4.1347,-4.1285,-4.148,-4.143,-4.1334,-4.1428,-4.1427,-4.1566,-4.1585,-4.1632,-4.1784,-4.1794,-4.1723,-4.173,-4.1734,-4.1737,0,0,0,0,0,0,0,-4.0873,-4.0902,-4.1179,-4.1154,-4.1167,-4.1191,-4.1218,-4.1322,-4.1451,-4.1342,-4.135,-4.1377,-4.1572,-4.1622,-4.1639,-4.1798,-4.1723,-4.1732,-4.1739,-4.1743,-4.2031,-4.2032,0,0,0,0,0,0,-4.0845,-4.089,-4.1171,-4.1186,-4.1024,-4.1199,-4.1229,-4.1292,-4.1451,-4.1474,-4.1378,-4.1381,-4.1604,-4.1626,-4.1648,-4.1755,-4.1734,-4.1744,-4.175,-4.2029,-4.2031,-4.2032,0,0,0,0,0,0,-4.0837,-4.087,-4.1161,-4.104,-4.1079,-4.1206,-4.1276,-4.1297,-4.1347,-4.1478,-4.1501,-4.1406,-4.1604,-4.1633,-4.1741,-4.1765,-4.1749,-4.1759,-4.2028,-4.203,-4.2032,-4.197,0,0,0,0,0,0,-4.0825,-4.0866,-4.0899,-4.104,-4.1085,-4.1251,-4.1277,-4.1302,-4.1366,-4.1372,-4.151,-4.1532,-4.1606,-4.1725,-4.1752,-4.1779,-4.1767,-4.2026,-4.2029,-4.2031,-4.197,-4.197,-4.1969,0,0,0,0,0,-4.0812,-4.0871,-4.09,-4.0933,-4.1129,-4.1252,-4.1278,-4.1363,-4.1367,-4.1401,-4.1485,-4.1528,-4.1758,-4.1735,-4.1766,-4.1797,-4.2025,-4.2028,-4.2031,-4.1971,-4.197,-4.1969,0,0,0,0,0,0,-4.0728,-4.0891,-4.0925,-4.1032,-4.1128,-4.1268,-4.1314,-4.1359,-4.1454,-4.1456,-4.1556,-4.1587,-4.1686,-4.1753,-4.1724,-4.1886,-4.1895,-4.1904,-4.1839,-4.1839,-4.1838,-4.1819,-4.1776,0,0,0,0,0,-4.0722,-4.0809,-4.0947,-4.1028,-4.1074,-4.1185,-4.1242,-4.1299,-4.1402,-4.1443,-4.1535,-4.1632,-4.1727,-4.1786,-4.1881,-4.1981,-4.2012,-4.2018,-4.2017,-4.2016,-4.2022,-4.2081,-4.2085,-4.2042,-4.2042,-4.2042,0,0,-4.071,-4.081,-4.0859,-4.1013,-4.1094,-4.1181,-4.1219,-4.1309,-4.1375,-4.1456,-4.1564,-4.1635,-4.175,-4.1855,-4.1906,-4.1914,-4.2042,-4.202,-4.2017,-4.2025,-4.2084,-4.2088,-4.2092,-4.2044,-4.2043,-4.2043,0,0,-4.0733,-4.0818,-4.0895,-4.0976,-4.1099,-4.1173,-4.1191,-4.1326,-4.1376,-4.1487,-4.155,-4.1629,-4.179,-4.187,-4.1931,-4.1987,-4.2029,-4.2014,-4.201,-4.2066,-4.2069,-4.2073,-4.2092,-4.2098,-4.2021,-4.2021,-4.202,0,-4.0703,-4.0838,-4.0929,-4.1017,-4.1083,-4.1162,-4.1241,-4.1315,-4.1461,-4.1505,-4.1512,-4.1716,-4.1799,-4.1924,-4.1938,-4.1985,-4.2009,-4.1999,-4.2062,-4.2066,-4.2071,-4.2091,-4.2098,-4.2018,-4.2018,-4.2019,-4.2019,0,-4.0795,-4.0887,-4.0935,-4.1076,-4.1148,-4.123,-4.1333,-4.1395,-4.1446,-4.1519,-4.1631,-4.1734,-4.1851,-4.1885,-4.1935,-4.2017,-4.2019,-4.2042,-4.2053,-4.2071,-4.2091,-4.2099,-4.2014,-4.2015,-4.2016,-4.2017,0,0,-4.0771,-4.0962,-4.0978,-4.1044,-4.1185,-4.1258,-4.1344,-4.146,-4.1511,-4.1609,-4.1684,-4.1819,-4.1843,-4.1913,-4.1973,-4.2022,-4.206,-4.2041,-4.2045,-4.204,-4.2157,-4.2137,-4.2145,-4.2089,-4.2091,-4.2093,-4.2147,0,-4.0813,-4.0972,-4.1057,-4.118,-4.1267,-4.1344,-4.142,-4.1514,-4.1585,-4.1669,-4.1747,-4.1841,-4.1865,-4.1908,-4.196,-4.2044,-4.2084,-4.2041,-4.2159,-4.2162,-4.2127,-4.2156,-4.2135,-4.2182,-4.2155,-4.2157,-4.2158,0,-4.0884,-4.0983,-4.1114,-4.1247,-4.1286,-4.1353,-4.1466,-4.1545,-4.1654,-4.1702,-4.1781,-4.1841,-4.1935,-4.1939,-4.207,-4.2039,-4.2092,-4.2141,-4.2145,-4.2158,-4.216,-4.2169,-4.2198,-4.2205,-4.2171,-4.217,-4.2169,0,-4.0853,-4.1019,-4.112,-4.1173,-4.133,-4.1375,-4.1442,-4.1551,-4.1615,-4.1714,-4.1757,-4.1865,-4.1923,-4.2005,-4.2093,-4.2088,-4.2215,-4.2227,-4.2257,-4.2255,-4.228,-4.2277,-4.2317,-4.2315,-4.2315,-4.2315,-4.2314,0,-4.0891,-4.0968,-4.1108,-4.1169,-4.1259,-4.1356,-4.1441,-4.1515,-4.1611,-4.1688,-4.1761,-4.1831,-4.1943,-4.2028,-4.2097,-4.2195,-4.2221,-4.2262,-4.2279,-4.2255,-4.225,-4.2291,-4.229,-4.2317,-4.2316,-4.2316,-4.2315,0,-4.0871,-4.0968,-4.1083,-4.1223,-4.126,-4.1319,-4.1439,-4.1501,-4.1577,-4.1673,-4.1701,-4.1819,-4.1923,-4.2019,-4.2156,-4.2202,-4.2301,-4.2323,-4.2264,-4.2274,-4.2299,-4.2295,-4.2366,-4.2381,-4.2368,-4.2368,-4.2368,0,-4.0889,-4.0951,-4.1098,-4.1155,-4.1221,-4.1313,-4.1379,-4.1477,-4.1543,-4.1673,-4.172,-4.1829,-4.1921,-4.2083,-4.218,-4.2286,-4.2311,-4.2329,-4.2328,-4.2302,-4.2312,-4.2306,-4.2313,-4.2327,-4.2327,-4.2327,-4.2326,0,-4.091,-4.0955,-4.1049,-4.1159,-4.1237,-4.1328,-4.1422,-4.1464,-4.158,-4.1651,-4.1758,-4.183,-4.1971,-4.2078,-4.2195,-4.2264,-4.2315,-4.2326,-4.2339,-4.2315,-4.2278,-4.2298,-4.226,-4.2324,-4.2324,-4.2324,-4.2325,-4.2325,-4.091,-4.0969,-4.1081,-4.1183,-4.1264,-4.135,-4.1417,-4.1501,-4.1592,-4.1715,-4.1767,-4.1876,-4.1985,-4.2147,-4.2216,-4.2302,-4.2313,-4.2331,-4.2336,-4.2339,-4.2334,-4.2265,-4.2324,-4.2324,-4.2324,-4.2324,-4.2325,0,-4.0935,-4.1012,-4.1104,-4.1234,-4.1314,-4.1356,-4.1462,-4.1526,-4.1621,-4.1718,-4.1808,-4.1931,-4.2036,-4.2142,-4.2253,-4.2301,-4.2327,-4.2327,-4.2324,-4.2339,-4.2318,-4.2296,-4.2304,-4.2304,-4.2304,-4.2304,-4.2304,-4.2304,-4.0957,-4.1059,-4.1117,-4.126,-4.1336,-4.1444,-4.1501,-4.1581,-4.1659,-4.1794,-4.1882,-4.1951,-4.2052,-4.2171,-4.2269,-4.2297,-4.2334,-4.2327,-4.2362,-4.234,-4.2341,-4.2341,-4.2321,-4.2335,-4.2335,-4.2377,-4.2377,-4.2377]},{"header":{"parameterUnit":"m.s-1","parameterCategory":1,"la1":30.2991,"la2":30.254,"lo1":-89.0895,"lo2":-89.0444,"dy":0.0017,"dx":0.0017,"nx":28,"ny":28,"refTime":"2024-02-29T03:00:00:Z","depth":0,"parameterNumber":3,"parameterNumberName":"V-component_of_WINDS"},"data":[0,0,0,0,0,0,0,0,0,0,0,0,0,0,0,0,0,0,0,0,0,0,0,0,0,0,0,0,0,0,0,0,0,0,0,0,0,0,0,0,0,0,0,0,0,0,0,0,0,0,0,0,0,0,0,0,0,0,5.9339,5.934,0,5.9436,5.9437,5.9438,5.9433,5.9431,5.943,5.9428,5.9522,5.9526,5.9529,0,0,0,0,0,0,0,0,0,0,0,0,0,5.9145,5.9148,5.9339,5.934,5.9341,5.9436,5.9437,5.9439,5.9433,5.9431,5.9429,5.9428,5.9521,5.9525,5.953,0,0,0,0,0,0,0,0,0,0,0,0,0,5.9234,5.9149,5.9338,5.935,5.9352,5.9436,5.9437,5.9439,5.9433,5.9431,5.9429,5.9427,5.9519,5.9525,5.953,5.9607,0,0,5.9548,5.955,0,0,0,0,0,0,0,0,5.9229,5.9241,5.9347,5.9349,5.9352,5.942,5.9403,5.9495,5.9434,5.9402,5.9428,5.9426,5.9489,5.9497,5.952,5.9611,5.9615,5.9548,5.9552,5.9554,5.9556,0,0,0,0,0,0,0,5.9223,5.9237,5.9377,5.9349,5.9351,5.9349,5.9359,5.942,5.9456,5.9405,5.9405,5.9417,5.949,5.9514,5.9522,5.9617,5.9548,5.9553,5.9557,5.9559,5.9778,5.9781,0,0,0,0,0,0,5.9215,5.9232,5.9374,5.938,5.9284,5.9354,5.9366,5.94,5.9455,5.9462,5.9418,5.9416,5.9506,5.9515,5.9525,5.962,5.9554,5.9559,5.9563,5.9776,5.9779,5.9781,0,0,0,0,0,0,5.921,5.9227,5.937,5.9306,5.9324,5.936,5.9398,5.9403,5.9428,5.9466,5.9471,5.9437,5.9505,5.9517,5.9588,5.9623,5.9562,5.9567,5.9773,5.9777,5.978,5.9808,0,0,0,0,0,0,5.9205,5.9226,5.9256,5.9307,5.9327,5.9432,5.9401,5.9407,5.9438,5.9436,5.9485,5.9491,5.9504,5.9579,5.9593,5.9629,5.9571,5.977,5.9775,5.9779,5.9804,5.9812,5.9819,0,0,0,0,0,5.9198,5.9258,5.9257,5.9275,5.9366,5.9434,5.9445,5.9461,5.9441,5.9471,5.9496,5.9489,5.9617,5.9587,5.9602,5.9641,5.9768,5.9773,5.9779,5.9801,5.9811,5.9819,0,0,0,0,0,0,5.9207,5.9265,5.9265,5.9343,5.9384,5.9433,5.9471,5.9471,5.9516,5.9512,5.9528,5.9539,5.961,5.9633,5.9597,5.9719,5.969,5.9699,5.9701,5.9711,5.9718,5.971,5.9576,0,0,0,0,0,5.9219,5.9271,5.9318,5.9383,5.9404,5.9434,5.9464,5.9473,5.9515,5.9532,5.9561,5.9601,5.9651,5.9682,5.973,5.9809,5.9819,5.9843,5.985,5.9857,5.9863,5.9908,5.9919,5.9799,5.9799,5.9799,0,0,5.9242,5.928,5.9311,5.9386,5.9418,5.947,5.9448,5.9504,5.9542,5.9539,5.9608,5.9632,5.9677,5.9753,5.9787,5.9773,5.9899,5.9864,5.9868,5.9871,5.9914,5.9926,5.9936,5.9803,5.9802,5.9802,0,0,5.9312,5.9346,5.9405,5.9439,5.949,5.9511,5.9525,5.9575,5.9592,5.9662,5.9661,5.9707,5.9792,5.9824,5.9852,5.9939,5.9934,5.9954,5.9992,6.0035,6.0045,6.0053,6.0084,6.0095,5.9961,5.9961,5.9961,0,5.9334,5.9414,5.9434,5.9492,5.9524,5.9528,5.9587,5.9619,5.9681,5.9703,5.9688,5.9797,5.9827,5.9911,5.9932,5.9955,5.9971,5.9947,6.0042,6.0051,6.0059,6.0088,6.01,5.9963,5.9963,5.9963,5.9963,0,5.9439,5.9495,5.9536,5.96,5.9637,5.9695,5.9723,5.9759,5.9766,5.9788,5.986,5.9898,5.9954,5.9975,5.9981,6.0061,6.0051,6.0039,6.0009,6.0072,6.01,6.0111,5.9966,5.9965,5.9965,5.9964,0,0,5.9512,5.9591,5.9605,5.9635,5.9694,5.9737,5.9795,5.9853,5.9883,5.9928,5.9976,6.005,6.0041,6.0072,6.0083,6.0121,6.0188,6.0105,6.0106,6.0118,6.0278,6.0285,6.0298,6.0187,6.0189,6.0191,6.0274,0,5.9587,5.9693,5.9714,5.9805,5.9858,5.9864,5.9915,5.9956,5.998,6.0026,6.0052,6.0104,6.0087,6.0107,6.0145,6.0172,6.022,6.0166,6.0231,6.0233,6.0217,6.0312,6.032,6.0396,6.0285,6.0287,6.0288,0,5.9687,5.9738,5.9835,5.9889,5.9912,5.9957,6.0013,6.0059,6.0106,6.012,6.0158,6.0166,6.0226,6.0197,6.028,6.0243,6.0272,6.0289,6.0293,6.0297,6.0262,6.0318,6.0421,6.0432,6.0305,6.0304,6.0303,0,5.973,5.9823,5.9893,5.9919,5.9984,6.0016,6.0045,6.009,6.0125,6.0173,6.0196,6.025,6.0279,6.0321,6.0343,6.0319,6.0425,6.0397,6.0437,6.0437,6.0457,6.0455,6.0563,6.0478,6.0478,6.0478,6.0477,0,5.981,5.9869,5.9914,5.9957,6.0023,6.0049,6.0113,6.0141,6.0183,6.0231,6.024,6.0284,6.0311,6.036,6.0377,6.0444,6.0457,6.047,6.0473,6.0468,6.0466,6.0485,6.0479,6.0481,6.048,6.0479,6.0479,0,5.9868,5.9901,5.9978,6.0036,6.0052,6.0098,6.0146,6.0188,6.0214,6.0275,6.029,6.0329,6.0387,6.0414,6.0485,6.0497,6.0573,6.0573,6.0557,6.0558,6.0597,6.0592,6.072,6.0738,6.0641,6.0642,6.0643,0,5.9916,5.9962,6.0026,6.0061,6.0091,6.0145,6.0181,6.0209,6.0246,6.0305,6.034,6.0399,6.0447,6.054,6.0573,6.0628,6.0629,6.067,6.0637,6.0631,6.0629,6.0625,6.063,6.0675,6.0676,6.0677,6.0677,0,5.9998,6.0013,6.0065,6.0125,6.0169,6.0216,6.0262,6.029,6.0324,6.0365,6.0427,6.0465,6.0539,6.0597,6.0656,6.0683,6.0686,6.0689,6.0701,6.0694,6.0683,6.0689,6.0572,6.0684,6.0684,6.0683,6.0683,6.0683,6.0051,6.0094,6.0146,6.0205,6.0244,6.0288,6.0331,6.0364,6.0416,6.048,6.0493,6.0558,6.0606,6.0685,6.0716,6.0766,6.0756,6.0774,6.0778,6.0781,6.0783,6.0677,6.0777,6.0776,6.0776,6.0776,6.0776,0,6.0133,6.0168,6.0223,6.0289,6.0336,6.0339,6.0391,6.043,6.0487,6.0534,6.0583,6.0653,6.0711,6.0751,6.081,6.0842,6.0845,6.0857,6.0853,6.086,6.0789,6.0772,6.0853,6.0853,6.0853,6.0853,6.0853,6.0853,6.018,6.0252,6.0274,6.0365,6.04,6.0465,6.0495,6.0536,6.0573,6.0653,6.0702,6.0729,6.0773,6.0835,6.0888,6.0899,6.0919,6.0931,6.0941,6.0873,6.0865,6.0857,6.0841,6.0935,6.0936,6.1007,6.1008,6.1008]}]]